AAL701 KBOS-KDFW

Flight info

Callsign AAL701
Flight time 4h 15m
Altitude 36000
Route BLZZR6 BLZZR BAF Q406 BWZ J6 LRP/N0454F320 J6 MRB/N0459F360 J6 HVQ Q68 SOPIE/N0460F380 Q68 LITTR FEWWW BRDJE5
Aircraft A321/M-SDE3FGHIRWY/LB1

Departure

Time 2026-05-06 12:51
Airport Boston Logan International Airport (KBOS)

Arrival

Time 2026-05-06 17:06
Airport Dallas Fort Worth International Airport (KDFW)
Time Latitude Longitude Altitude Speed Heading
2026-05-06 12:31 42.36038 -71.01909 26 ft 0 kts 30°
2026-05-06 12:38 42.36031 -71.01914 30 ft 4 kts 30°
2026-05-06 12:38 42.36008 -71.01933 30 ft 4 kts 30°
2026-05-06 12:39 42.35990 -71.01948 28 ft 4 kts 55°
2026-05-06 12:39 42.35988 -71.01975 28 ft 4 kts 118°
2026-05-06 12:39 42.36001 -71.02005 31 ft 4 kts 120°
2026-05-06 12:39 42.36010 -71.02025 27 ft 4 kts 121°
2026-05-06 12:40 42.36021 -71.02050 29 ft 4 kts 121°
2026-05-06 12:40 42.36027 -71.02065 28 ft 0 kts 121°
2026-05-06 12:42 42.36024 -71.02058 29 ft 2 kts 121°
2026-05-06 12:42 42.36011 -71.02028 27 ft 5 kts 121°
2026-05-06 12:42 42.35988 -71.01977 28 ft 8 kts 121°
2026-05-06 12:42 42.35957 -71.01906 27 ft 9 kts 121°
2026-05-06 12:43 42.35924 -71.01825 25 ft 10 kts 112°
2026-05-06 12:43 42.35906 -71.01728 27 ft 11 kts 102°
2026-05-06 12:43 42.35891 -71.01624 27 ft 11 kts 99°
2026-05-06 12:43 42.35910 -71.01542 29 ft 9 kts 38°
2026-05-06 12:44 42.35977 -71.01507 27 ft 12 kts 19°
2026-05-06 12:44 42.36060 -71.01467 27 ft 14 kts 19°
2026-05-06 12:44 42.36159 -71.01418 28 ft 16 kts 20°
2026-05-06 12:44 42.36273 -71.01363 27 ft 18 kts 19°
2026-05-06 12:45 42.36383 -71.01312 26 ft 16 kts 20°
2026-05-06 12:45 42.36485 -71.01262 27 ft 16 kts 20°
2026-05-06 12:45 42.36679 -71.01168 27 ft 13 kts 20°
2026-05-06 12:46 42.36760 -71.01143 27 ft 12 kts 356°
2026-05-06 12:46 42.36825 -71.01193 25 ft 10 kts 316°
2026-05-06 12:46 42.36886 -71.01219 27 ft 11 kts 18°
2026-05-06 12:46 42.36953 -71.01146 27 ft 14 kts 41°
2026-05-06 12:47 42.37035 -71.01079 25 ft 13 kts 25°
2026-05-06 12:47 42.37118 -71.01025 28 ft 14 kts 25°
2026-05-06 12:47 42.37207 -71.00968 26 ft 15 kts 25°
2026-05-06 12:47 42.37303 -71.00907 28 ft 16 kts 23°
2026-05-06 12:48 42.37411 -71.00854 27 ft 17 kts 19°
2026-05-06 12:48 42.37525 -71.00800 28 ft 18 kts 20°
2026-05-06 12:48 42.37644 -71.00741 26 ft 19 kts 20°
2026-05-06 12:48 42.37767 -71.00681 27 ft 17 kts 19°
2026-05-06 12:49 42.37838 -71.00602 28 ft 12 kts 85°
2026-05-06 12:49 42.37813 -71.00498 28 ft 6 kts 110°
2026-05-06 12:49 42.37788 -71.00475 28 ft 4 kts 189°
2026-05-06 12:49 42.37776 -71.00482 28 ft 0 kts 200°
2026-05-06 12:50 42.37774 -71.00483 28 ft 2 kts 200°
2026-05-06 12:50 42.37590 -71.00572 29 ft 64 kts 199°
2026-05-06 12:50 42.36967 -71.00872 28 ft 126 kts 199°
2026-05-06 12:51 42.36064 -71.01311 469 ft 139 kts 201°
2026-05-06 12:51 42.35166 -71.01773 1201 ft 139 kts 200°
2026-05-06 12:51 42.34185 -71.01472 1827 ft 166 kts 153°
2026-05-06 12:51 42.33485 -71.00084 2298 ft 189 kts 132°
2026-05-06 12:52 42.32776 -70.98523 2790 ft 201 kts 136°
2026-05-06 12:52 42.31982 -70.96877 3258 ft 216 kts 135°
2026-05-06 12:52 42.31400 -70.94861 3573 ft 252 kts 104°
2026-05-06 12:52 42.31552 -70.92345 3925 ft 285 kts 87°
2026-05-06 12:53 42.31909 -70.89611 4494 ft 301 kts 83°
2026-05-06 12:53 42.32327 -70.86831 5669 ft 301 kts 83°
2026-05-06 12:53 42.32754 -70.84076 6718 ft 302 kts 86°
2026-05-06 12:53 42.32880 -70.81241 7284 ft 302 kts 102°
2026-05-06 12:54 42.32500 -70.78474 7941 ft 297 kts 116°
2026-05-06 12:54 42.31681 -70.75952 8637 ft 290 kts 131°
2026-05-06 12:54 42.30426 -70.73886 9315 ft 280 kts 149°
2026-05-06 12:54 42.28829 -70.72491 10002 ft 269 kts 166°
2026-05-06 12:55 42.27045 -70.71852 10507 ft 266 kts 183°
2026-05-06 12:55 42.25212 -70.72002 11059 ft 264 kts 196°
2026-05-06 12:55 42.23384 -70.72442 11699 ft 269 kts 195°
2026-05-06 12:55 42.21553 -70.72981 12352 ft 269 kts 205°
2026-05-06 12:56 42.19941 -70.74209 13003 ft 268 kts 221°
2026-05-06 12:56 42.18698 -70.76127 13378 ft 282 kts 238°
2026-05-06 12:56 42.18010 -70.78707 13528 ft 307 kts 255°
2026-05-06 12:56 42.17634 -70.81640 13718 ft 326 kts 256°
2026-05-06 12:57 42.17238 -70.84682 14187 ft 333 kts 256°
2026-05-06 12:57 42.16826 -70.87773 14735 ft 337 kts 256°
2026-05-06 12:57 42.16403 -70.90895 15335 ft 340 kts 256°
2026-05-06 12:57 42.16071 -70.94069 15902 ft 346 kts 264°
2026-05-06 12:58 42.16195 -70.97340 16455 ft 353 kts 271°
2026-05-06 12:58 42.16445 -71.00650 17025 ft 357 kts 271°
2026-05-06 12:58 42.16696 -71.03997 17598 ft 360 kts 272°
2026-05-06 12:58 42.16946 -71.07373 18168 ft 364 kts 272°
2026-05-06 12:59 42.17196 -71.10777 18659 ft 367 kts 272°
2026-05-06 12:59 42.17448 -71.14213 19165 ft 370 kts 272°
2026-05-06 12:59 42.17693 -71.17632 19663 ft 372 kts 272°
2026-05-06 12:59 42.17944 -71.21168 20163 ft 375 kts 272°
2026-05-06 13:00 42.18193 -71.24683 20647 ft 378 kts 272°
2026-05-06 13:00 42.18440 -71.28177 21124 ft 381 kts 272°
2026-05-06 13:00 42.18691 -71.31738 21583 ft 383 kts 272°
2026-05-06 13:00 42.18947 -71.35375 22015 ft 386 kts 272°
2026-05-06 13:01 42.19201 -71.38995 22478 ft 389 kts 272°
2026-05-06 13:01 42.19452 -71.42581 22902 ft 391 kts 273°
2026-05-06 13:01 42.19707 -71.46256 23337 ft 394 kts 273°
2026-05-06 13:01 42.19963 -71.49947 23711 ft 397 kts 273°
2026-05-06 13:02 42.20220 -71.53658 24083 ft 399 kts 273°
2026-05-06 13:02 42.20474 -71.57392 24499 ft 400 kts 272°
2026-05-06 13:02 42.20727 -71.61131 24912 ft 401 kts 272°
2026-05-06 13:02 42.20979 -71.64880 25295 ft 402 kts 272°
2026-05-06 13:03 42.21228 -71.68644 25665 ft 404 kts 272°
2026-05-06 13:03 42.21482 -71.72425 26028 ft 405 kts 273°
2026-05-06 13:03 42.21678 -71.76222 26385 ft 406 kts 268°
2026-05-06 13:03 42.21529 -71.80023 26728 ft 407 kts 264°
2026-05-06 13:04 42.21322 -71.83831 27074 ft 408 kts 264°
2026-05-06 13:04 42.21109 -71.87656 27412 ft 410 kts 264°
2026-05-06 13:04 42.20892 -71.91491 27760 ft 411 kts 264°
2026-05-06 13:04 42.20676 -71.95339 28154 ft 412 kts 264°
2026-05-06 13:05 42.20459 -71.99193 28518 ft 413 kts 264°
2026-05-06 13:05 42.20241 -72.03070 28836 ft 415 kts 264°
2026-05-06 13:05 42.20023 -72.06958 29138 ft 417 kts 264°
2026-05-06 13:05 42.19805 -72.10856 29537 ft 416 kts 264°
2026-05-06 13:06 42.19587 -72.14742 29986 ft 415 kts 264°
2026-05-06 13:06 42.19367 -72.18612 30394 ft 413 kts 264°
2026-05-06 13:06 42.19148 -72.22455 30800 ft 410 kts 265°
2026-05-06 13:06 42.18928 -72.26271 31250 ft 407 kts 265°
2026-05-06 13:07 42.18704 -72.30051 31777 ft 401 kts 264°
2026-05-06 13:07 42.18482 -72.33779 32269 ft 397 kts 265°
2026-05-06 13:07 42.18262 -72.37470 32725 ft 394 kts 265°
2026-05-06 13:07 42.18044 -72.41132 33153 ft 391 kts 265°
2026-05-06 13:08 42.17828 -72.44771 33570 ft 388 kts 265°
2026-05-06 13:08 42.17613 -72.48389 33976 ft 386 kts 265°
2026-05-06 13:08 42.17399 -72.51982 34312 ft 384 kts 265°
2026-05-06 13:08 42.17183 -72.55560 34623 ft 382 kts 265°
2026-05-06 13:09 42.16969 -72.59078 34931 ft 381 kts 265°
2026-05-06 13:09 42.16752 -72.62628 35257 ft 379 kts 266°
2026-05-06 13:09 42.16513 -72.66156 35582 ft 378 kts 263°
2026-05-06 13:09 42.15927 -72.69611 35825 ft 379 kts 255°
2026-05-06 13:10 42.14955 -72.72922 35884 ft 382 kts 248°
2026-05-06 13:10 42.11988 -72.78926 35864 ft 388 kts 239°
2026-05-06 13:11 42.08650 -72.84665 35887 ft 390 kts 238°
2026-05-06 13:11 42.05258 -72.90369 35881 ft 390 kts 237°
2026-05-06 13:12 42.01881 -72.96074 35900 ft 389 kts 238°
2026-05-06 13:12 41.98526 -73.01774 35905 ft 389 kts 238°
2026-05-06 13:13 41.94890 -73.07197 35861 ft 398 kts 227°
2026-05-06 13:13 41.90195 -73.11337 35873 ft 406 kts 220°
2026-05-06 13:13 41.87796 -73.13344 36014 ft 406 kts 221°
2026-05-06 13:14 41.85401 -73.15354 36340 ft 405 kts 221°
2026-05-06 13:14 41.83011 -73.17362 36617 ft 404 kts 221°
2026-05-06 13:14 41.80629 -73.19357 36834 ft 404 kts 221°
2026-05-06 13:14 41.78240 -73.21352 37075 ft 404 kts 221°
2026-05-06 13:15 41.75861 -73.23343 37242 ft 404 kts 222°
2026-05-06 13:15 41.73474 -73.25343 37444 ft 404 kts 222°
2026-05-06 13:15 41.71083 -73.27341 37633 ft 404 kts 222°
2026-05-06 13:15 41.68727 -73.29306 37819 ft 404 kts 222°
2026-05-06 13:16 41.66422 -73.31407 37884 ft 396 kts 229°
2026-05-06 13:16 41.64434 -73.33864 37878 ft 384 kts 237°
2026-05-06 13:16 41.62688 -73.36545 37887 ft 382 kts 238°
2026-05-06 13:17 41.59208 -73.41906 37868 ft 382 kts 237°
2026-05-06 13:17 41.55725 -73.47262 37879 ft 382 kts 238°
2026-05-06 13:18 41.52234 -73.52619 37871 ft 383 kts 237°
2026-05-06 13:18 41.48723 -73.57986 37884 ft 385 kts 237°
2026-05-06 13:19 41.45206 -73.63359 37922 ft 384 kts 237°
2026-05-06 13:19 41.41691 -73.68720 37923 ft 384 kts 238°
2026-05-06 13:20 41.38177 -73.74063 37921 ft 383 kts 238°
2026-05-06 13:20 41.34679 -73.79391 37912 ft 382 kts 238°
2026-05-06 13:21 41.31151 -73.84678 37906 ft 382 kts 237°
2026-05-06 13:21 41.27581 -73.89921 37910 ft 382 kts 237°
2026-05-06 13:22 41.24009 -73.95144 37871 ft 382 kts 237°
2026-05-06 13:22 41.20445 -74.00377 37883 ft 382 kts 237°
2026-05-06 13:23 41.16881 -74.05606 37921 ft 382 kts 237°
2026-05-06 13:23 41.13519 -74.10966 37913 ft 369 kts 246°
2026-05-06 13:24 41.10847 -74.16703 37909 ft 368 kts 246°
2026-05-06 13:24 41.08151 -74.22460 37896 ft 367 kts 246°
2026-05-06 13:25 41.05451 -74.28206 37914 ft 367 kts 246°
2026-05-06 13:25 41.02744 -74.33944 37923 ft 367 kts 246°
2026-05-06 13:26 41.00036 -74.39675 37934 ft 366 kts 246°
2026-05-06 13:26 40.97341 -74.45384 37925 ft 365 kts 246°
2026-05-06 13:27 40.95104 -74.50110 37917 ft 364 kts 246°
2026-05-06 13:27 40.92414 -74.55779 37895 ft 364 kts 246°
2026-05-06 13:28 40.89726 -74.61442 37915 ft 364 kts 246°
2026-05-06 13:28 40.87036 -74.67101 37907 ft 363 kts 246°
2026-05-06 13:29 40.84338 -74.72754 37905 ft 363 kts 246°
2026-05-06 13:29 40.81647 -74.78401 37901 ft 363 kts 246°
2026-05-06 13:30 40.78958 -74.84050 37893 ft 363 kts 247°
2026-05-06 13:30 40.76370 -74.89754 37869 ft 362 kts 249°
2026-05-06 13:31 40.73814 -74.95478 37883 ft 362 kts 248°
2026-05-06 13:31 40.71246 -75.01188 37886 ft 363 kts 248°
2026-05-06 13:32 40.68659 -75.06898 37909 ft 363 kts 248°
2026-05-06 13:32 40.66084 -75.12584 37915 ft 363 kts 248°
2026-05-06 13:33 40.63491 -75.18272 37918 ft 362 kts 248°
2026-05-06 13:33 40.60915 -75.23899 37893 ft 361 kts 248°
2026-05-06 13:34 40.58310 -75.29585 37905 ft 361 kts 248°
2026-05-06 13:34 40.55712 -75.35242 37924 ft 361 kts 248°
2026-05-06 13:35 40.53138 -75.40862 37929 ft 361 kts 248°
2026-05-06 13:35 40.50548 -75.46505 37938 ft 360 kts 248°
2026-05-06 13:36 40.47951 -75.52136 37936 ft 360 kts 248°
2026-05-06 13:36 40.45358 -75.57748 37930 ft 359 kts 248°
2026-05-06 13:37 40.43164 -75.62480 37908 ft 359 kts 248°
2026-05-06 13:37 40.40569 -75.68085 37926 ft 360 kts 248°
2026-05-06 13:38 40.37970 -75.73689 37929 ft 359 kts 248°
2026-05-06 13:38 40.35375 -75.79271 37948 ft 359 kts 248°
2026-05-06 13:39 40.32796 -75.84816 37938 ft 358 kts 248°
2026-05-06 13:39 40.30205 -75.90368 37930 ft 357 kts 248°
2026-05-06 13:40 40.27616 -75.95907 37915 ft 356 kts 248°
2026-05-06 13:40 40.25023 -76.01447 37898 ft 357 kts 248°
2026-05-06 13:41 40.22430 -76.06982 37905 ft 357 kts 248°
2026-05-06 13:41 40.19830 -76.12516 37916 ft 357 kts 248°
2026-05-06 13:42 40.17229 -76.18044 37927 ft 357 kts 248°
2026-05-06 13:42 40.14627 -76.23559 37926 ft 356 kts 248°
2026-05-06 13:43 40.12023 -76.29053 37926 ft 355 kts 248°
2026-05-06 13:43 40.09455 -76.34564 37885 ft 355 kts 249°
2026-05-06 13:44 40.06934 -76.40087 37889 ft 354 kts 249°
2026-05-06 13:44 40.04402 -76.45613 37898 ft 355 kts 249°
2026-05-06 13:45 40.01846 -76.51131 37902 ft 355 kts 249°
2026-05-06 13:45 39.98003 -76.59386 37905 ft 354 kts 248°
2026-05-06 13:46 39.95456 -76.64878 37904 ft 354 kts 248°
2026-05-06 13:46 39.92903 -76.70362 37909 ft 354 kts 248°
2026-05-06 13:47 39.90349 -76.75839 37909 ft 354 kts 248°
2026-05-06 13:47 39.87788 -76.81311 37905 ft 354 kts 248°
2026-05-06 13:48 39.85232 -76.86778 37908 ft 354 kts 248°
2026-05-06 13:48 39.82672 -76.92237 37926 ft 353 kts 248°
2026-05-06 13:49 39.80110 -76.97688 37925 ft 353 kts 248°
2026-05-06 13:49 39.77548 -77.03124 37932 ft 352 kts 248°
2026-05-06 13:50 39.74985 -77.08551 37907 ft 352 kts 249°
2026-05-06 13:50 39.72422 -77.13975 37915 ft 352 kts 248°
2026-05-06 13:51 39.69855 -77.19397 37924 ft 353 kts 248°
2026-05-06 13:51 39.67309 -77.24786 37928 ft 352 kts 248°
2026-05-06 13:52 39.64746 -77.30192 37928 ft 351 kts 248°
2026-05-06 13:52 39.62180 -77.35586 37935 ft 351 kts 248°
2026-05-06 13:53 39.59615 -77.40971 37938 ft 351 kts 248°
2026-05-06 13:53 39.57051 -77.46344 37894 ft 351 kts 248°
2026-05-06 13:54 39.54481 -77.51719 37913 ft 351 kts 248°
2026-05-06 13:54 39.51907 -77.57096 37925 ft 351 kts 248°
2026-05-06 13:55 39.49329 -77.62463 37930 ft 351 kts 248°
2026-05-06 13:55 39.46748 -77.67824 37916 ft 350 kts 248°
2026-05-06 13:56 39.44178 -77.73174 37896 ft 350 kts 248°
2026-05-06 13:56 39.41605 -77.78513 37898 ft 350 kts 248°
2026-05-06 13:57 39.39033 -77.83846 37854 ft 349 kts 248°
2026-05-06 13:57 39.36656 -77.89273 37863 ft 345 kts 251°
2026-05-06 13:58 39.34522 -77.94819 37873 ft 344 kts 252°
2026-05-06 13:58 39.32391 -78.00361 37888 ft 345 kts 251°
2026-05-06 13:59 39.30215 -78.05882 37896 ft 345 kts 251°
2026-05-06 13:59 39.28014 -78.11385 37899 ft 345 kts 251°
2026-05-06 14:00 39.25813 -78.16886 37899 ft 345 kts 251°
2026-05-06 14:00 39.23631 -78.22350 37901 ft 345 kts 251°
2026-05-06 14:01 39.21436 -78.27844 37901 ft 345 kts 251°
2026-05-06 14:01 39.19230 -78.33342 37862 ft 345 kts 251°
2026-05-06 14:02 39.17020 -78.38838 37872 ft 346 kts 251°
2026-05-06 14:02 39.14803 -78.44332 37878 ft 346 kts 251°
2026-05-06 14:03 39.12579 -78.49834 37877 ft 346 kts 251°
2026-05-06 14:03 39.10349 -78.55333 37884 ft 346 kts 251°
2026-05-06 14:04 39.08128 -78.60830 37879 ft 346 kts 251°
2026-05-06 14:04 39.05903 -78.66318 37883 ft 346 kts 251°
2026-05-06 14:05 39.03671 -78.71805 37874 ft 346 kts 251°
2026-05-06 14:05 39.01440 -78.77283 37860 ft 346 kts 251°
2026-05-06 14:06 38.99211 -78.82750 37881 ft 345 kts 251°
2026-05-06 14:06 38.96978 -78.88227 37872 ft 346 kts 251°
2026-05-06 14:07 38.94740 -78.93690 37877 ft 346 kts 251°
2026-05-06 14:07 38.92496 -78.99166 37881 ft 347 kts 251°
2026-05-06 14:08 38.90263 -79.04595 37883 ft 346 kts 250°
2026-05-06 14:08 38.88015 -79.10044 37882 ft 345 kts 250°
2026-05-06 14:09 38.85773 -79.15491 37886 ft 345 kts 250°
2026-05-06 14:09 38.83799 -79.21032 37860 ft 335 kts 261°
2026-05-06 14:10 38.82765 -79.26835 37871 ft 334 kts 262°
2026-05-06 14:10 38.81725 -79.32634 37880 ft 334 kts 261°
2026-05-06 14:11 38.80675 -79.38437 37895 ft 334 kts 262°
2026-05-06 14:11 38.79630 -79.44234 37904 ft 333 kts 261°
2026-05-06 14:12 38.78588 -79.50026 37903 ft 334 kts 261°
2026-05-06 14:12 38.77538 -79.55811 37904 ft 333 kts 261°
2026-05-06 14:13 38.76481 -79.61587 37905 ft 333 kts 261°
2026-05-06 14:13 38.75425 -79.67355 37915 ft 333 kts 261°
2026-05-06 14:14 38.74547 -79.72154 37914 ft 332 kts 261°
2026-05-06 14:14 38.73493 -79.77920 37913 ft 332 kts 261°
2026-05-06 14:15 38.72434 -79.83659 37911 ft 328 kts 261°
2026-05-06 14:15 38.71383 -79.89333 37911 ft 328 kts 261°
2026-05-06 14:16 38.70328 -79.95010 37913 ft 328 kts 261°
2026-05-06 14:16 38.69270 -80.00689 37868 ft 328 kts 261°
2026-05-06 14:17 38.68215 -80.06367 37885 ft 328 kts 261°
2026-05-06 14:17 38.67153 -80.12047 37902 ft 329 kts 261°
2026-05-06 14:18 38.66095 -80.17693 37932 ft 328 kts 260°
2026-05-06 14:18 38.65028 -80.23365 37921 ft 327 kts 260°
2026-05-06 14:19 38.63961 -80.29021 37916 ft 327 kts 260°
2026-05-06 14:19 38.62895 -80.34666 37907 ft 326 kts 260°
2026-05-06 14:20 38.61826 -80.40301 37910 ft 326 kts 260°
2026-05-06 14:20 38.60757 -80.45928 37907 ft 326 kts 260°
2026-05-06 14:21 38.59680 -80.51557 37897 ft 326 kts 260°
2026-05-06 14:21 38.58602 -80.57180 37899 ft 326 kts 260°
2026-05-06 14:22 38.57524 -80.62798 37896 ft 325 kts 260°
2026-05-06 14:22 38.56445 -80.68409 37898 ft 325 kts 260°
2026-05-06 14:23 38.55365 -80.74014 37903 ft 325 kts 260°
2026-05-06 14:23 38.54283 -80.79616 37890 ft 325 kts 260°
2026-05-06 14:24 38.53198 -80.85214 37852 ft 325 kts 260°
2026-05-06 14:24 38.52108 -80.90818 37871 ft 325 kts 260°
2026-05-06 14:25 38.51016 -80.96420 37882 ft 325 kts 259°
2026-05-06 14:25 38.49924 -81.02018 37892 ft 325 kts 259°
2026-05-06 14:26 38.48824 -81.07608 37887 ft 325 kts 259°
2026-05-06 14:26 38.47731 -81.13156 37889 ft 324 kts 259°
2026-05-06 14:27 38.46626 -81.18779 37888 ft 324 kts 259°
2026-05-06 14:27 38.45535 -81.24325 37882 ft 324 kts 259°
2026-05-06 14:28 38.44425 -81.29907 37893 ft 325 kts 259°
2026-05-06 14:28 38.43311 -81.35484 37893 ft 324 kts 259°
2026-05-06 14:29 38.42202 -81.41053 37883 ft 324 kts 259°
2026-05-06 14:29 38.41094 -81.46620 37883 ft 324 kts 259°
2026-05-06 14:30 38.39975 -81.52184 37885 ft 324 kts 259°
2026-05-06 14:30 38.38858 -81.57746 37920 ft 324 kts 259°
2026-05-06 14:31 38.37738 -81.63304 37921 ft 324 kts 259°
2026-05-06 14:31 38.36611 -81.68864 37926 ft 324 kts 258°
2026-05-06 14:32 38.35493 -81.74379 37866 ft 324 kts 259°
2026-05-06 14:32 38.34161 -81.79874 37878 ft 326 kts 255°
2026-05-06 14:33 38.32639 -81.85320 37883 ft 327 kts 255°
2026-05-06 14:33 38.31112 -81.90772 37885 ft 327 kts 255°
2026-05-06 14:34 38.29589 -81.96223 37886 ft 327 kts 255°
2026-05-06 14:34 38.28062 -82.01677 37883 ft 327 kts 255°
2026-05-06 14:35 38.26531 -82.07124 37885 ft 327 kts 255°
2026-05-06 14:35 38.24992 -82.12567 37894 ft 327 kts 255°
2026-05-06 14:36 38.23462 -82.17970 37895 ft 327 kts 255°
2026-05-06 14:36 38.21919 -82.23413 37894 ft 327 kts 255°
2026-05-06 14:37 38.20372 -82.28853 37893 ft 327 kts 255°
2026-05-06 14:37 38.18823 -82.34285 37891 ft 327 kts 255°
2026-05-06 14:38 38.17276 -82.39722 37906 ft 327 kts 255°
2026-05-06 14:38 38.15728 -82.45159 37911 ft 327 kts 255°
2026-05-06 14:39 38.14176 -82.50593 37936 ft 327 kts 255°
2026-05-06 14:39 38.12629 -82.55982 37930 ft 327 kts 255°
2026-05-06 14:40 38.11062 -82.61407 37923 ft 327 kts 255°
2026-05-06 14:40 38.09501 -82.66831 37917 ft 327 kts 255°
2026-05-06 14:41 38.07938 -82.72251 37914 ft 327 kts 255°
2026-05-06 14:41 38.06371 -82.77674 37906 ft 327 kts 255°
2026-05-06 14:42 38.04804 -82.83088 37913 ft 327 kts 254°
2026-05-06 14:42 38.03232 -82.88499 37914 ft 327 kts 254°
2026-05-06 14:43 38.01658 -82.93905 37915 ft 327 kts 254°
2026-05-06 14:43 38.00082 -82.99311 37916 ft 327 kts 254°
2026-05-06 14:44 37.98505 -83.04715 37853 ft 326 kts 254°
2026-05-06 14:45 37.96137 -83.12806 37881 ft 327 kts 253°
2026-05-06 14:45 37.94543 -83.18199 37907 ft 327 kts 253°
2026-05-06 14:46 37.92953 -83.23597 37912 ft 327 kts 254°
2026-05-06 14:46 37.91371 -83.28999 37916 ft 327 kts 253°
2026-05-06 14:47 37.89783 -83.34401 37925 ft 327 kts 253°
2026-05-06 14:47 37.88296 -83.39423 37927 ft 328 kts 253°
2026-05-06 14:48 37.86688 -83.44828 37922 ft 328 kts 253°
2026-05-06 14:48 37.85083 -83.50230 37940 ft 328 kts 253°
2026-05-06 14:49 37.83472 -83.55640 37950 ft 329 kts 253°
2026-05-06 14:49 37.81856 -83.61049 37953 ft 329 kts 253°
2026-05-06 14:50 37.80243 -83.66462 37950 ft 329 kts 253°
2026-05-06 14:50 37.78637 -83.71836 37888 ft 329 kts 253°
2026-05-06 14:51 37.77007 -83.77280 37915 ft 329 kts 253°
2026-05-06 14:51 37.75392 -83.82655 37930 ft 329 kts 253°
2026-05-06 14:52 37.74307 -83.86257 37932 ft 330 kts 253°
2026-05-06 14:52 37.72737 -83.91327 37962 ft 330 kts 253°
2026-05-06 14:53 37.71113 -83.96741 37973 ft 330 kts 253°
2026-05-06 14:53 37.69493 -84.02151 37981 ft 329 kts 253°
2026-05-06 14:54 37.67862 -84.07553 37992 ft 329 kts 253°
2026-05-06 14:54 37.66227 -84.12945 38000 ft 329 kts 253°
2026-05-06 14:55 37.64587 -84.18340 38009 ft 329 kts 253°
2026-05-06 14:55 37.63767 -84.21028 37799 ft 327 kts 253°
2026-05-06 14:55 37.62946 -84.23707 37202 ft 328 kts 252°
2026-05-06 14:55 37.62123 -84.26390 36705 ft 327 kts 252°
2026-05-06 14:56 37.61301 -84.29059 36181 ft 326 kts 252°
2026-05-06 14:56 37.60479 -84.31732 35570 ft 328 kts 252°
2026-05-06 14:56 37.59654 -84.34420 34932 ft 330 kts 252°
2026-05-06 14:56 37.58822 -84.37135 34301 ft 332 kts 252°
2026-05-06 14:57 37.57987 -84.39851 33615 ft 333 kts 252°
2026-05-06 14:57 37.57149 -84.42569 32871 ft 335 kts 252°
2026-05-06 14:57 37.56300 -84.45321 32207 ft 337 kts 251°
2026-05-06 14:57 37.55444 -84.48092 32011 ft 344 kts 251°
2026-05-06 14:58 37.54578 -84.50891 31965 ft 350 kts 251°
2026-05-06 14:58 37.52793 -84.56641 31987 ft 353 kts 251°
2026-05-06 14:59 37.51002 -84.62408 31993 ft 354 kts 251°
2026-05-06 14:59 37.49204 -84.68173 31998 ft 354 kts 251°
2026-05-06 15:00 37.47411 -84.73956 31994 ft 355 kts 251°
2026-05-06 15:00 37.45623 -84.79742 31992 ft 355 kts 251°
2026-05-06 15:01 37.43828 -84.85523 31993 ft 355 kts 251°
2026-05-06 15:01 37.42033 -84.91300 31989 ft 355 kts 251°
2026-05-06 15:02 37.40234 -84.97075 31982 ft 355 kts 251°
2026-05-06 15:02 37.38433 -85.02849 32007 ft 355 kts 251°
2026-05-06 15:03 37.36628 -85.08616 31996 ft 355 kts 251°
2026-05-06 15:03 37.34812 -85.14380 32012 ft 355 kts 251°
2026-05-06 15:04 37.32989 -85.20146 32026 ft 355 kts 251°
2026-05-06 15:04 37.31163 -85.25914 32031 ft 355 kts 251°
2026-05-06 15:05 37.29643 -85.30708 32034 ft 356 kts 251°
2026-05-06 15:05 37.27816 -85.36482 31964 ft 356 kts 251°
2026-05-06 15:06 37.25981 -85.42256 31970 ft 356 kts 250°
2026-05-06 15:06 37.24139 -85.48025 31976 ft 356 kts 251°
2026-05-06 15:07 37.22290 -85.53803 31978 ft 357 kts 251°
2026-05-06 15:07 37.20437 -85.59576 31983 ft 357 kts 251°
2026-05-06 15:08 37.18586 -85.65349 31989 ft 356 kts 251°
2026-05-06 15:08 37.16736 -85.71115 31994 ft 357 kts 251°
2026-05-06 15:09 37.14884 -85.76887 31968 ft 357 kts 250°
2026-05-06 15:09 37.13026 -85.82655 31980 ft 357 kts 250°
2026-05-06 15:10 37.11172 -85.88386 31994 ft 357 kts 250°
2026-05-06 15:10 37.09304 -85.94154 32002 ft 357 kts 250°
2026-05-06 15:11 37.07436 -85.99920 32004 ft 357 kts 250°
2026-05-06 15:11 37.05558 -86.05680 32008 ft 357 kts 250°
2026-05-06 15:12 37.03680 -86.11443 32011 ft 357 kts 250°
2026-05-06 15:12 37.01801 -86.17200 32014 ft 357 kts 250°
2026-05-06 15:13 36.99922 -86.22953 32033 ft 357 kts 250°
2026-05-06 15:13 36.98039 -86.28696 32040 ft 357 kts 250°
2026-05-06 15:14 36.96152 -86.34434 32037 ft 357 kts 250°
2026-05-06 15:14 36.94264 -86.40165 32037 ft 356 kts 250°
2026-05-06 15:15 36.92369 -86.45892 31982 ft 357 kts 249°
2026-05-06 15:15 36.90351 -86.51571 31991 ft 358 kts 249°
2026-05-06 15:16 36.88283 -86.57232 32040 ft 358 kts 249°
2026-05-06 15:16 36.86228 -86.62891 32041 ft 357 kts 249°
2026-05-06 15:17 36.84188 -86.68539 32040 ft 356 kts 249°
2026-05-06 15:17 36.82156 -86.74173 32036 ft 356 kts 249°
2026-05-06 15:18 36.80129 -86.79793 32031 ft 355 kts 249°
2026-05-06 15:18 36.78106 -86.85372 32030 ft 355 kts 249°
2026-05-06 15:19 36.76065 -86.90982 32025 ft 355 kts 249°
2026-05-06 15:19 36.74024 -86.96591 32028 ft 355 kts 249°
2026-05-06 15:20 36.71989 -87.02193 32026 ft 354 kts 249°
2026-05-06 15:20 36.69948 -87.07780 31980 ft 355 kts 249°
2026-05-06 15:21 36.67896 -87.13382 31977 ft 355 kts 249°
2026-05-06 15:21 36.65846 -87.18986 31990 ft 356 kts 249°
2026-05-06 15:22 36.63790 -87.24582 31997 ft 356 kts 249°
2026-05-06 15:22 36.61726 -87.30178 32004 ft 356 kts 249°
2026-05-06 15:23 36.59670 -87.35772 32024 ft 355 kts 249°
2026-05-06 15:23 36.57613 -87.41351 32023 ft 355 kts 249°
2026-05-06 15:24 36.55550 -87.46925 32024 ft 355 kts 249°
2026-05-06 15:24 36.53487 -87.52494 32025 ft 354 kts 249°
2026-05-06 15:25 36.51423 -87.58055 32022 ft 354 kts 249°
2026-05-06 15:25 36.49361 -87.63613 32022 ft 354 kts 249°
2026-05-06 15:26 36.47294 -87.69167 31964 ft 354 kts 248°
2026-05-06 15:26 36.45223 -87.74723 32010 ft 355 kts 248°
2026-05-06 15:27 36.43147 -87.80285 32014 ft 354 kts 248°
2026-05-06 15:27 36.41075 -87.85831 32014 ft 354 kts 248°
2026-05-06 15:28 36.38997 -87.91366 32020 ft 354 kts 248°
2026-05-06 15:28 36.36927 -87.96866 32015 ft 354 kts 248°
2026-05-06 15:29 36.34846 -88.02394 32014 ft 354 kts 248°
2026-05-06 15:29 36.32765 -88.07919 32014 ft 354 kts 248°
2026-05-06 15:30 36.30681 -88.13444 32037 ft 354 kts 248°
2026-05-06 15:30 36.28598 -88.18966 32044 ft 354 kts 248°
2026-05-06 15:31 36.26510 -88.24487 32053 ft 353 kts 248°
2026-05-06 15:31 36.24418 -88.29993 32049 ft 353 kts 248°
2026-05-06 15:32 36.21279 -88.38251 32000 ft 354 kts 248°
2026-05-06 15:32 36.19175 -88.43779 31993 ft 355 kts 248°
2026-05-06 15:33 36.17054 -88.49313 32033 ft 356 kts 248°
2026-05-06 15:33 36.14936 -88.54836 32037 ft 355 kts 248°
2026-05-06 15:34 36.12834 -88.60355 32040 ft 354 kts 248°
2026-05-06 15:34 36.10738 -88.65825 32040 ft 354 kts 248°
2026-05-06 15:35 36.08618 -88.71318 32038 ft 354 kts 248°
2026-05-06 15:35 36.06501 -88.76806 32034 ft 353 kts 248°
2026-05-06 15:36 36.04387 -88.82289 32032 ft 353 kts 248°
2026-05-06 15:36 36.02275 -88.87760 32043 ft 353 kts 248°
2026-05-06 15:37 36.00159 -88.93219 32047 ft 352 kts 248°
2026-05-06 15:37 35.98043 -88.98665 32044 ft 351 kts 248°
2026-05-06 15:38 35.95930 -89.04111 32044 ft 351 kts 248°
2026-05-06 15:38 35.93813 -89.09543 32040 ft 351 kts 248°
2026-05-06 15:39 35.91693 -89.14971 32037 ft 351 kts 248°
2026-05-06 15:39 35.89578 -89.20394 32034 ft 351 kts 248°
2026-05-06 15:40 35.87464 -89.25813 32063 ft 351 kts 248°
2026-05-06 15:40 35.85356 -89.31183 32057 ft 350 kts 248°
2026-05-06 15:41 35.83236 -89.36576 32041 ft 349 kts 248°
2026-05-06 15:41 35.81117 -89.41962 32045 ft 349 kts 248°
2026-05-06 15:42 35.79000 -89.47337 32045 ft 349 kts 248°
2026-05-06 15:42 35.76880 -89.52710 32041 ft 349 kts 248°
2026-05-06 15:43 35.74762 -89.58083 31989 ft 349 kts 247°
2026-05-06 15:43 35.72630 -89.63481 32003 ft 351 kts 247°
2026-05-06 15:44 35.70484 -89.68874 32007 ft 351 kts 247°
2026-05-06 15:44 35.68341 -89.74269 32010 ft 351 kts 247°
2026-05-06 15:45 35.66195 -89.79658 32016 ft 351 kts 247°
2026-05-06 15:45 35.64049 -89.85050 32016 ft 351 kts 247°
2026-05-06 15:46 35.61906 -89.90433 32019 ft 350 kts 247°
2026-05-06 15:46 35.59756 -89.95808 32023 ft 350 kts 247°
2026-05-06 15:47 35.57596 -90.01172 32048 ft 350 kts 247°
2026-05-06 15:47 35.55460 -90.06495 32048 ft 349 kts 247°
2026-05-06 15:48 35.53314 -90.11846 32041 ft 349 kts 247°
2026-05-06 15:48 35.51157 -90.17225 32041 ft 349 kts 247°
2026-05-06 15:49 35.49022 -90.22530 31995 ft 349 kts 247°
2026-05-06 15:49 35.46869 -90.27863 32007 ft 349 kts 247°
2026-05-06 15:50 35.44702 -90.33208 32008 ft 350 kts 247°
2026-05-06 15:50 35.42539 -90.38549 32026 ft 350 kts 247°
2026-05-06 15:51 35.40372 -90.43896 32032 ft 350 kts 246°
2026-05-06 15:51 35.38200 -90.49232 32034 ft 350 kts 246°
2026-05-06 15:52 35.36029 -90.54565 32034 ft 350 kts 246°
2026-05-06 15:52 35.33856 -90.59898 32028 ft 350 kts 246°
2026-05-06 15:53 35.31681 -90.65223 32044 ft 350 kts 246°
2026-05-06 15:53 35.29503 -90.70543 32044 ft 350 kts 246°
2026-05-06 15:54 35.27694 -90.74961 32043 ft 350 kts 246°
2026-05-06 15:54 35.25515 -90.80278 32083 ft 349 kts 246°
2026-05-06 15:55 35.22979 -90.86442 32025 ft 349 kts 246°
2026-05-06 15:55 35.20790 -90.91749 32049 ft 350 kts 246°
2026-05-06 15:56 35.18959 -90.96202 32052 ft 350 kts 246°
2026-05-06 15:56 35.16774 -91.01488 32057 ft 351 kts 246°
2026-05-06 15:57 35.14576 -91.06810 32065 ft 351 kts 246°
2026-05-06 15:57 35.12374 -91.12133 32075 ft 351 kts 246°
2026-05-06 15:58 35.10171 -91.17452 32112 ft 351 kts 246°
2026-05-06 15:58 35.07962 -91.22763 32112 ft 350 kts 246°
2026-05-06 15:59 35.05751 -91.28052 32109 ft 350 kts 246°
2026-05-06 15:59 35.03549 -91.33342 32097 ft 349 kts 246°
2026-05-06 16:00 35.01346 -91.38622 32094 ft 349 kts 246°
2026-05-06 16:00 34.99143 -91.43903 32096 ft 349 kts 246°
2026-05-06 16:01 34.96935 -91.49180 32040 ft 350 kts 246°
2026-05-06 16:01 34.94724 -91.54468 32081 ft 350 kts 246°
2026-05-06 16:02 34.92498 -91.59755 32080 ft 350 kts 246°
2026-05-06 16:02 34.90285 -91.65000 32082 ft 350 kts 246°
2026-05-06 16:03 34.88062 -91.70273 32079 ft 350 kts 246°
2026-05-06 16:03 34.85839 -91.75544 32079 ft 350 kts 246°
2026-05-06 16:04 34.83610 -91.80814 32079 ft 350 kts 246°
2026-05-06 16:04 34.81381 -91.86080 32077 ft 350 kts 246°
2026-05-06 16:05 34.79145 -91.91348 32089 ft 350 kts 246°
2026-05-06 16:05 34.76919 -91.96599 32086 ft 349 kts 246°
2026-05-06 16:06 34.74690 -92.01846 32089 ft 349 kts 246°
2026-05-06 16:06 34.72454 -92.07085 32088 ft 349 kts 245°
2026-05-06 16:07 34.70219 -92.12321 32052 ft 349 kts 246°
2026-05-06 16:07 34.68000 -92.17540 32058 ft 349 kts 248°
2026-05-06 16:08 34.66408 -92.23098 32064 ft 349 kts 252°
2026-05-06 16:08 34.64887 -92.28691 32071 ft 349 kts 252°
2026-05-06 16:09 34.63356 -92.34283 32076 ft 349 kts 252°
2026-05-06 16:09 34.61825 -92.39875 32077 ft 349 kts 252°
2026-05-06 16:10 34.60301 -92.45462 32076 ft 349 kts 252°
2026-05-06 16:10 34.58763 -92.51043 32076 ft 349 kts 252°
2026-05-06 16:11 34.57225 -92.56621 32074 ft 348 kts 252°
2026-05-06 16:11 34.55693 -92.62196 32071 ft 348 kts 252°
2026-05-06 16:12 34.54156 -92.67766 32075 ft 348 kts 252°
2026-05-06 16:12 34.52620 -92.73330 32071 ft 348 kts 252°
2026-05-06 16:13 34.51081 -92.78885 32061 ft 347 kts 252°
2026-05-06 16:13 34.49549 -92.84395 32062 ft 347 kts 252°
2026-05-06 16:14 34.48002 -92.89944 32061 ft 348 kts 252°
2026-05-06 16:14 34.46451 -92.95488 32063 ft 348 kts 251°
2026-05-06 16:15 34.44901 -93.01037 32038 ft 348 kts 252°
2026-05-06 16:15 34.43353 -93.06585 32007 ft 348 kts 252°
2026-05-06 16:16 34.41800 -93.12141 32016 ft 349 kts 251°
2026-05-06 16:16 34.40231 -93.17708 32022 ft 350 kts 251°
2026-05-06 16:17 34.38654 -93.23281 32020 ft 350 kts 251°
2026-05-06 16:17 34.37076 -93.28864 32017 ft 350 kts 251°
2026-05-06 16:18 34.35502 -93.34447 32019 ft 350 kts 251°
2026-05-06 16:18 34.33924 -93.40024 32014 ft 350 kts 251°
2026-05-06 16:19 34.32345 -93.45599 32017 ft 350 kts 251°
2026-05-06 16:19 34.30765 -93.51172 32013 ft 350 kts 251°
2026-05-06 16:20 34.29172 -93.56744 32016 ft 350 kts 251°
2026-05-06 16:20 34.27586 -93.62274 32018 ft 350 kts 251°
2026-05-06 16:21 34.25994 -93.67843 32013 ft 350 kts 251°
2026-05-06 16:21 34.24405 -93.73408 32011 ft 350 kts 251°
2026-05-06 16:22 34.22808 -93.78967 32011 ft 350 kts 251°
2026-05-06 16:22 34.21200 -93.84521 32014 ft 350 kts 251°
2026-05-06 16:23 34.19597 -93.90073 32013 ft 350 kts 251°
2026-05-06 16:23 34.17973 -93.95612 32013 ft 350 kts 250°
2026-05-06 16:24 34.16342 -94.01147 32013 ft 350 kts 251°
2026-05-06 16:24 34.14715 -94.06677 31989 ft 350 kts 251°
2026-05-06 16:25 34.13073 -94.12205 31989 ft 350 kts 251°
2026-05-06 16:25 34.11433 -94.17743 32002 ft 350 kts 251°
2026-05-06 16:26 34.09817 -94.23294 32010 ft 351 kts 251°
2026-05-06 16:26 34.08231 -94.28860 32021 ft 351 kts 251°
2026-05-06 16:27 34.06646 -94.34436 32024 ft 351 kts 251°
2026-05-06 16:27 34.05064 -94.40013 32026 ft 352 kts 251°
2026-05-06 16:28 34.03495 -94.45560 32034 ft 352 kts 251°
2026-05-06 16:28 34.01908 -94.51178 32037 ft 352 kts 251°
2026-05-06 16:29 34.00345 -94.56729 32025 ft 352 kts 251°
2026-05-06 16:29 33.98793 -94.62323 32021 ft 352 kts 251°
2026-05-06 16:30 33.97504 -94.67011 32014 ft 352 kts 251°
2026-05-06 16:30 33.95725 -94.73512 31993 ft 352 kts 251°
2026-05-06 16:31 33.94198 -94.79105 31992 ft 351 kts 251°
2026-05-06 16:31 33.92677 -94.84694 31990 ft 351 kts 251°
2026-05-06 16:32 33.91158 -94.90287 31992 ft 352 kts 251°
2026-05-06 16:32 33.89642 -94.95880 32003 ft 352 kts 251°
2026-05-06 16:33 33.88142 -95.01481 31999 ft 351 kts 251°
2026-05-06 16:34 33.85905 -95.09883 32005 ft 351 kts 251°
2026-05-06 16:34 33.84420 -95.15478 31964 ft 351 kts 251°
2026-05-06 16:35 33.82945 -95.21081 31980 ft 352 kts 251°
2026-05-06 16:35 33.81482 -95.26659 31984 ft 352 kts 251°
2026-05-06 16:36 33.80011 -95.32281 31995 ft 353 kts 251°
2026-05-06 16:36 33.78548 -95.37907 32001 ft 353 kts 251°
2026-05-06 16:37 33.77090 -95.43539 32002 ft 353 kts 251°
2026-05-06 16:37 33.75638 -95.49172 32010 ft 353 kts 251°
2026-05-06 16:38 33.74186 -95.54815 32020 ft 353 kts 251°
2026-05-06 16:38 33.72739 -95.60459 32023 ft 353 kts 251°
2026-05-06 16:39 33.71295 -95.66105 32013 ft 353 kts 252°
2026-05-06 16:39 33.69854 -95.71749 32024 ft 353 kts 252°
2026-05-06 16:40 33.68428 -95.77389 32025 ft 353 kts 252°
2026-05-06 16:40 33.67010 -95.83025 32025 ft 353 kts 252°
2026-05-06 16:41 33.65597 -95.88660 32025 ft 352 kts 252°
2026-05-06 16:41 33.64187 -95.94294 32014 ft 352 kts 252°
2026-05-06 16:41 33.63488 -95.97091 31496 ft 350 kts 252°
2026-05-06 16:42 33.62793 -95.99857 30679 ft 353 kts 252°
2026-05-06 16:42 33.62073 -96.02693 29757 ft 358 kts 252°
2026-05-06 16:42 33.61341 -96.05560 28716 ft 362 kts 252°
2026-05-06 16:42 33.60599 -96.08466 27688 ft 366 kts 252°
2026-05-06 16:43 33.59850 -96.11399 26761 ft 369 kts 251°
2026-05-06 16:43 33.58756 -96.14155 26115 ft 365 kts 237°
2026-05-06 16:43 33.57017 -96.16308 25944 ft 357 kts 223°
2026-05-06 16:43 33.54970 -96.17933 25671 ft 348 kts 220°
2026-05-06 16:44 33.52944 -96.19483 25160 ft 343 kts 219°
2026-05-06 16:44 33.50935 -96.21014 24551 ft 342 kts 219°
2026-05-06 16:44 33.48927 -96.22538 24108 ft 342 kts 219°
2026-05-06 16:44 33.46913 -96.24064 23719 ft 342 kts 219°
2026-05-06 16:45 33.44949 -96.25642 23263 ft 337 kts 225°
2026-05-06 16:45 33.43307 -96.27590 22787 ft 329 kts 233°
2026-05-06 16:45 33.41812 -96.29658 22321 ft 328 kts 232°
2026-05-06 16:45 33.40322 -96.31715 21858 ft 326 kts 232°
2026-05-06 16:46 33.38839 -96.33756 21408 ft 324 kts 232°
2026-05-06 16:46 33.37363 -96.35789 20956 ft 323 kts 232°
2026-05-06 16:46 33.35898 -96.37809 20558 ft 321 kts 232°
2026-05-06 16:46 33.34442 -96.39817 20217 ft 317 kts 232°
2026-05-06 16:47 33.33493 -96.41125 19992 ft 312 kts 232°
2026-05-06 16:47 33.32084 -96.43065 19663 ft 307 kts 232°
2026-05-06 16:47 33.30699 -96.44990 19334 ft 305 kts 232°
2026-05-06 16:47 33.29326 -96.46911 19023 ft 303 kts 233°
2026-05-06 16:48 33.27965 -96.48823 18701 ft 301 kts 233°
2026-05-06 16:48 33.26606 -96.50717 18385 ft 300 kts 232°
2026-05-06 16:48 33.25222 -96.52578 18028 ft 299 kts 231°
2026-05-06 16:48 33.23828 -96.54420 17665 ft 299 kts 231°
2026-05-06 16:49 33.22431 -96.56249 17306 ft 298 kts 230°
2026-05-06 16:49 33.21032 -96.58074 16974 ft 295 kts 230°
2026-05-06 16:49 33.19662 -96.59859 16621 ft 288 kts 230°
2026-05-06 16:49 33.18318 -96.61620 16275 ft 286 kts 230°
2026-05-06 16:50 33.16997 -96.63385 15930 ft 285 kts 230°
2026-05-06 16:50 33.15697 -96.65164 15590 ft 285 kts 230°
2026-05-06 16:50 33.14402 -96.66951 15256 ft 285 kts 230°
2026-05-06 16:50 33.13107 -96.68739 14921 ft 285 kts 230°
2026-05-06 16:51 33.11819 -96.70520 14592 ft 282 kts 230°
2026-05-06 16:51 33.10544 -96.72272 14265 ft 277 kts 229°
2026-05-06 16:51 33.09287 -96.73994 13941 ft 273 kts 229°
2026-05-06 16:51 33.08048 -96.75688 13588 ft 269 kts 229°
2026-05-06 16:52 33.06840 -96.77339 13237 ft 266 kts 229°
2026-05-06 16:52 33.05611 -96.79007 12873 ft 263 kts 229°
2026-05-06 16:52 33.04420 -96.80611 12589 ft 258 kts 229°
2026-05-06 16:52 33.03242 -96.82199 12371 ft 253 kts 230°
2026-05-06 16:53 33.02083 -96.83768 12123 ft 252 kts 230°
2026-05-06 16:53 33.00921 -96.85337 11994 ft 252 kts 229°
2026-05-06 16:53 32.99773 -96.86885 11976 ft 239 kts 230°
2026-05-06 16:53 32.98717 -96.88308 11975 ft 226 kts 230°
2026-05-06 16:54 32.97614 -96.89571 11979 ft 219 kts 216°
2026-05-06 16:54 32.96208 -96.90294 11957 ft 225 kts 196°
2026-05-06 16:54 32.94621 -96.90469 11968 ft 232 kts 190°
2026-05-06 16:54 32.92982 -96.90586 11555 ft 240 kts 188°
2026-05-06 16:55 32.91322 -96.90707 11335 ft 236 kts 190°
2026-05-06 16:55 32.89698 -96.90819 11122 ft 234 kts 189°
2026-05-06 16:55 32.88072 -96.90938 10784 ft 235 kts 189°
2026-05-06 16:55 32.86436 -96.91058 10485 ft 236 kts 189°
2026-05-06 16:56 32.84801 -96.91175 10196 ft 236 kts 189°
2026-05-06 16:56 32.83156 -96.91292 9892 ft 237 kts 189°
2026-05-06 16:56 32.81507 -96.91415 9585 ft 238 kts 188°
2026-05-06 16:56 32.79856 -96.91535 9314 ft 237 kts 188°
2026-05-06 16:57 32.78220 -96.91604 9013 ft 237 kts 186°
2026-05-06 16:57 32.76579 -96.91617 8667 ft 236 kts 185°
2026-05-06 16:57 32.74927 -96.91612 8335 ft 235 kts 184°
2026-05-06 16:57 32.73293 -96.91600 8023 ft 234 kts 184°
2026-05-06 16:58 32.71666 -96.91587 7726 ft 233 kts 184°
2026-05-06 16:58 32.70052 -96.91580 7370 ft 231 kts 184°
2026-05-06 16:58 32.68450 -96.91577 6931 ft 229 kts 183°
2026-05-06 16:58 32.66866 -96.91573 6528 ft 226 kts 183°
2026-05-06 16:59 32.65337 -96.91854 6112 ft 220 kts 209°
2026-05-06 16:59 32.64223 -96.93026 5774 ft 215 kts 242°
2026-05-06 16:59 32.63841 -96.94716 5440 ft 214 kts 266°
2026-05-06 16:59 32.63884 -96.96492 5064 ft 216 kts 271°
2026-05-06 17:00 32.63997 -96.98255 5001 ft 216 kts 272°
2026-05-06 17:00 32.64138 -97.00030 5013 ft 216 kts 276°
2026-05-06 17:00 32.64681 -97.01628 4926 ft 209 kts 303°
2026-05-06 17:00 32.65747 -97.02711 4815 ft 202 kts 328°
2026-05-06 17:01 32.67105 -97.03123 4602 ft 204 kts 354°
2026-05-06 17:01 32.68518 -97.03115 4365 ft 202 kts 355°
2026-05-06 17:01 32.69907 -97.03105 4113 ft 196 kts 358°
2026-05-06 17:01 32.71251 -97.03097 3859 ft 190 kts 358°
2026-05-06 17:02 32.72556 -97.03090 3618 ft 185 kts 359°
2026-05-06 17:02 32.73828 -97.03084 3382 ft 181 kts
2026-05-06 17:02 32.75084 -97.03077 3137 ft 177 kts
2026-05-06 17:02 32.76260 -97.03072 2905 ft 159 kts
2026-05-06 17:03 32.77311 -97.03067 2716 ft 145 kts
2026-05-06 17:03 32.78292 -97.03062 2527 ft 138 kts
2026-05-06 17:03 32.79245 -97.03056 2331 ft 136 kts
2026-05-06 17:03 32.80196 -97.03050 2111 ft 136 kts
2026-05-06 17:04 32.81144 -97.03045 1921 ft 137 kts
2026-05-06 17:04 32.82100 -97.03041 1727 ft 136 kts
2026-05-06 17:04 32.83027 -97.03038 1555 ft 131 kts
2026-05-06 17:04 32.83943 -97.03037 1381 ft 133 kts
2026-05-06 17:05 32.84878 -97.03036 1215 ft 136 kts
2026-05-06 17:05 32.85830 -97.03024 1054 ft 136 kts
2026-05-06 17:05 32.86768 -97.03015 843 ft 133 kts
2026-05-06 17:05 32.87685 -97.03008 660 ft 130 kts
2026-05-06 17:06 32.88546 -97.03003 578 ft 112 kts
2026-05-06 17:06 32.89135 -97.02999 575 ft 64 kts
2026-05-06 17:06 32.89517 -97.02999 578 ft 50 kts
2026-05-06 17:06 32.89796 -97.03010 580 ft 27 kts 348°
2026-05-06 17:07 32.89948 -97.03083 580 ft 20 kts 331°
2026-05-06 17:07 32.90062 -97.03160 580 ft 19 kts 330°
2026-05-06 17:07 32.90109 -97.03269 582 ft 14 kts 270°
2026-05-06 17:07 32.90110 -97.03365 587 ft 11 kts 270°
2026-05-06 17:08 32.90111 -97.03467 587 ft 12 kts 270°
2026-05-06 17:08 32.90111 -97.03567 587 ft 11 kts 270°
2026-05-06 17:08 32.90112 -97.03648 587 ft 8 kts 270°
2026-05-06 17:08 32.90112 -97.03723 587 ft 10 kts 270°
2026-05-06 17:09 32.90102 -97.03760 587 ft 4 kts 216°
2026-05-06 17:09 32.90069 -97.03765 587 ft 3 kts 181°
2026-05-06 17:09 32.90050 -97.03765 587 ft 1 kts 181°
2026-05-06 17:09 32.90048 -97.03765 587 ft 0 kts 181°